Date,TemperatureHighF,TemperatureAvgF,TemperatureLowF,DewpointHighF,DewpointAvgF,DewpointLowF,HumidityHigh,HumidityAvg,HumidityLow,PressureMaxIn,PressureMinIn,WindSpeedMaxMPH,WindSpeedAvgMPH,GustSpeedMaxMPH,PrecipitationSumIn
2013-11-1,64.8,61.2,56.5,58.5,50.4,41.3,92,70,43,29.64,29.49,15,6,15,0.08
2013-11-2,56.8,48.9,41.5,43.9,39.8,35.3,79,71,56,29.87,29.62,8,4,8,0.00
2013-11-3,50.1,42.3,35.4,36.4,29.8,20.0,85,64,33,30.42,29.87,6,2,8,0.00
2013-11-4,35.7,34.0,32.1,25.3,21.1,18.2,70,59,50,30.61,30.42,7,3,7,0.00
2013-11-5,45.0,39.7,31.6,39.2,29.4,21.3,83,67,52,30.62,30.46,9,7,9,0.00
2013-11-6,62.7,52.9,44.6,50.7,46.8,41.4,98,81,58,30.46,30.01,13,7,13,0.00
2013-11-7,55.0,49.4,35.9,50.7,44.5,26.7,97,83,69,30.02,29.86,13,5,13,0.01
2013-11-8,42.7,34.1,31.6,26.7,24.0,22.5,73,66,47,30.31,30.00,9,2,10,0.00
2013-11-9,49.4,41.9,31.5,28.4,25.5,22.1,74,53,36,30.32,30.04,18,4,19,0.00
2013-11-10,51.3,42.9,35.0,34.2,28.7,22.6,68,58,38,30.20,29.97,10,5,10,0.01
2013-11-11,54.5,42.7,33.0,27.5,23.5,12.5,77,51,21,30.27,30.02,9,4,10,0.00
2013-11-12,50.5,32.8,24.1,34.3,21.7,13.1,87,66,22,30.37,29.98,8,3,8,0.00
2013-11-13,34.3,27.4,21.6,18.4,17.0,8.2,82,66,46,30.51,30.37,14,4,14,0.00
2013-11-14,53.5,39.6,28.9,15.9,5.4,-1.5,41,24,17,30.39,30.24,8,4,8,0.00
2013-11-15,54.6,49.8,45.3,31.2,14.4,8.7,48,25,16,30.25,30.16,4,2,4,0.00
2013-11-16,54.8,47.2,44.0,47.4,41.4,34.5,98,81,63,30.25,30.17,11,4,11,0.01
2013-11-17,57.0,52.2,46.9,55.2,51.0,46.4,99,96,88,30.17,29.67,13,8,13,0.01
2013-11-18,56.4,49.7,40.6,55.2,32.6,25.4,98,54,32,29.89,29.67,13,7,13,0.17
2013-11-19,39.9,34.5,31.5,26.8,25.0,22.8,73,68,59,30.36,29.89,4,2,13,0.00
2013-11-20,38.7,30.0,25.8,24.3,20.9,19.0,84,70,45,30.55,30.36,10,4,10,0.00
2013-11-21,43.5,35.4,29.0,41.6,31.5,24.4,93,86,79,30.54,30.39,12,7,12,0.00
2013-11-22,58.3,51.7,43.4,51.1,46.7,41.0,91,83,73,30.39,30.03,7,3,7,0.00
2013-11-23,45.2,32.1,22.6,42.7,26.9,18.2,93,82,52,30.13,30.03,5,2,5,0.00
2013-11-24,22.7,18.0,15.2,20.0,7.5,5.0,91,64,46,30.52,30.11,8,3,8,0.00
2013-11-25,29.8,21.2,15.1,8.5,5.8,4.4,64,52,34,30.55,30.38,11,4,11,0.00
2013-11-26,36.1,32.2,28.8,35.3,26.6,8.1,98,82,41,30.37,29.66,8,3,11,0.61
2013-11-27,32.6,26.7,17.2,32.1,25.8,15.0,98,96,90,30.01,29.58,0,0,8,4.96
2013-11-28,28.0,20.8,17.0,24.1,18.0,14.3,91,89,84,30.47,30.03,0,0,0,0.00
2013-11-29,32.9,26.5,22.4,25.7,22.1,19.4,90,83,74,30.71,30.47,0,0,0,0.01
2013-11-30,27.9,23.3,19.7,21.8,19.2,16.5,89,84,77,30.71,30.38,0,0,0,0.08